Weather Roundup
Issued by NWS Chicago, IL

Home | Current Version | Previous Version | Text Only | Print | Product List | Glossary Off
Versions: 1 2 3 4 5 6 7 8 9 10 11 12 13 14 15 16 17 18 19 20 21 22 23 24 25 26 27 28 29 30 31 32 33 34 35 36 37 38 39 40 41 42 43 44 45 46 47 48 49 50

000
NZUS59 KLOT 191708
HRRLOT

CHICAGO AREA WEATHER ROUNDUP
NATIONAL WEATHER SERVICE CHICAGO/ROMEOVILLE IL
1200 PM CDT SUN APR 19 2015

NOTE: "FAIR" INDICATES FEW OR NO CLOUDS BELOW 12,000 FEET WITH NO
SIGNIFICANT WEATHER AND/OR OBSTRUCTIONS TO VISIBILITY.

* THESE STATIONS ARE NOT UNDER NWS QUALITY CONTROL. THEY ALSO MAY NOT
  REPORT WEATHER SUCH AS PRECIPITATION OR FOG.

ILZ005-006-012>014-019>023-191800-
NORTHEAST ILLINOIS

CITY           SKY/WX    TMP DP  RH WIND       PRES   REMARKS
OHARE          PTSUNNY   67  38  34 E12       29.71F
MIDWAY         PTSUNNY   67  40  37 E12       29.70F
AURORA         PTSUNNY   73  41  31 E14       29.69F
LANSING*       PTSUNNY   72  37  27 E23       29.69F
JOLIET*        PTSUNNY   71  43  37 E13       29.69F
WAUKEGAN       MOSUNNY   57  35  43 E10       29.75F
DUPAGE AIRPORT PTSUNNY   68  40  35 E7        29.69F
WHEELING       MOSUNNY   61  35  37 E12       29.74F
KANKAKEE*      CLOUDY    66  46  48 E15G21    29.70F
MORRIS*        PTSUNNY   69  40  35 SE15      29.68F
LEWIS AIRPORT* PTSUNNY   71  38  29 SE15G22   29.69F
NORTHERLY IS     N/A     54  38  54 MISG        N/A
$$

WIZ051-052-058>065-066-070>072-191800-
SOUTHEAST WISCONSIN

CITY           SKY/WX    TMP DP  RH WIND       PRES   REMARKS
MILWAUKEE      PTSUNNY   52  34  50 NE7       29.78F
KENOSHA*       MOSUNNY   59  34  39 E15       29.76F
RACINE*        MOSUNNY   55  34  45 NE8       29.79F
BURLINGTON     MOSUNNY   62  34  35 E12G18    29.74F
WAUKESHA       PTSUNNY   57  34  41 E12G20    29.78F
WEST BEND      MOSUNNY   55  30  38 E13G20    29.79F
$$

INZ001>003-010>013-019-020-191800-
NORTHWEST INDIANA

CITY           SKY/WX    TMP DP  RH WIND       PRES   REMARKS
GARY*          PTSUNNY   73  27  17 SE22      29.70F
MICHIGAN CITY* NOT AVBL
RENSSELAER*    NOT AVBL
VALPARAISO     PTSUNNY   70  39  32 SE17G24   29.72F
$$

LMZ740>746-191800-
SOUTHERN LAKE MICHIGAN

STATION/POSITION TIME  SKY/WX   TEMP WIND        PRES    VSBY
                                AIR  DIR/SP/G
                 (UTC)          (F)  (DEG/KT/KT) (MB)    (MI)
HARRISON CRIB    1600            46   20/ 10/ 10   N/A
BURNHAM HARBOR   1700            54   20/  6/ 11   N/A
CALUMET HARBOR   1600            53   10/  7/ 10   N/A
BURNS HARBOR     1600            68  120/ 18/ 25 1007.5F
MICHIGAN CITY    1600            66   80/ 19/ 25   N/A
$$

ABBREVIATIONS USED IN REMARKS
   TC - TEMPERATURE IN CELSIUS
  WCI - WIND CHILL INDEX
   HX - HEAT INDEX
  VSB - VISIBILITY
$$



USA.gov is the U.S. government's official web portal to all federal, state and local government web resources and services.